Location: East Irvine
(33.6759°N, 117.7598°W)
Time: 01:56:09
(UTC+00:00)

Cosmos 2034 Rocket - Visible Passes

Search period start: 16 February 2026 00:00
Search period end: 26 February 2026 00:00
Orbit: 956 x 1001 km, 82.9° (Epoch: 15 February)

Date Brightness Start Highest point End Pass type
(mag) Time Alt. Az. Time Alt. Az. Time Alt. Az.
16 Feb 3.9 03:24:14 10° N 03:30:27 87° W 03:36:41 10° S visible
17 Feb 5.0 02:06:18 10° NNE 02:11:00 22° ENE 02:15:42 10° SE visible
17 Feb 5.0 03:50:45 10° NNW 03:56:35 45° W 04:02:27 10° SSW visible
18 Feb 4.3 02:31:39 10° N 02:37:30 43° E 02:43:23 10° SSE visible
18 Feb 6.1 04:17:54 10° NW 04:22:33 23° W 04:27:15 10° SW visible
19 Feb 3.9 02:57:36 10° N 03:03:50 84° E 03:10:06 10° S visible
19 Feb 7.0 04:47:12 10° WNW 04:48:21 11° W 04:49:32 10° W visible
20 Feb 4.8 03:24:02 10° NNW 03:30:00 51° W 03:36:00 10° SSW visible
21 Feb 4.5 02:05:07 10° NNE 02:10:51 38° ENE 02:16:37 10° SE visible
21 Feb 6.0 03:51:02 10° NNW 03:56:00 26° W 04:01:01 10° SW visible
21 Feb 7.3 13:50:01 10° E 13:51:57 12° E 13:53:53 10° ENE visible
22 Feb 3.9 02:31:00 10° N 02:37:13 75° E 02:43:28 10° S visible
22 Feb 6.9 04:19:26 10° WNW 04:21:51 12° W 04:24:16 10° WSW visible
23 Feb 4.7 02:57:20 10° NNW 03:03:25 57° W 03:09:31 10° S visible
24 Feb 5.9 03:24:12 10° NNW 03:29:27 29° W 03:34:43 10° SW visible
25 Feb 4.0 02:04:24 10° N 02:10:36 66° E 02:16:50 10° SSE visible
25 Feb 6.9 03:52:09 10° NW 03:55:19 14° W 03:58:30 10° WSW visible
25 Feb 6.8 13:46:43 10° SE 13:51:14 22° E 13:55:42 10° NE visible
